Time,TemperatureF,DewpointF,PressureIn,WindDirection,WindDirectionDegrees,WindSpeedMPH,WindSpeedGustMPH,Humidity,HourlyPrecipIn,Conditions,Clouds,dailyrainin,SoftwareType,DateUTC
2013-01-25 00:00:00,22.5,9.6,30.40,NNE,18,0.0,0.0,57,0.00,,---,0.00,VWS V14.01,2013-01-25 05:00:00,
2013-01-25 00:01:00,22.5,9.2,30.40,NNE,18,0.0,0.0,56,0.00,,---,0.00,VWS V14.01,2013-01-25 05:01:00,
2013-01-25 00:03:00,22.5,9.6,30.40,NNE,18,0.0,0.0,57,0.00,,---,0.00,VWS V14.01,2013-01-25 05:03:00,
2013-01-25 00:08:00,22.3,10.2,30.41,NNE,18,0.0,0.0,59,0.00,,---,0.00,VWS V14.01,2013-01-25 05:08:00,
2013-01-25 00:13:00,22.4,7.9,30.41,NE,44,0.0,0.0,53,0.00,,---,0.00,VWS V14.01,2013-01-25 05:13:00,
2013-01-25 00:18:00,22.5,6.2,30.41,NNE,20,0.0,0.0,49,0.00,,---,0.00,VWS V14.01,2013-01-25 05:18:00,
2013-01-25 00:23:00,22.5,8.4,30.41,NNE,27,0.0,0.0,54,0.00,,---,0.00,VWS V14.01,2013-01-25 05:23:00,
2013-01-25 00:28:00,22.4,7.4,30.42,East,98,1.0,1.0,52,0.00,,---,0.00,VWS V14.01,2013-01-25 05:28:00,
2013-01-25 00:33:00,22.3,6.9,30.41,WNW,298,1.0,2.0,51,0.00,,---,0.00,VWS V14.01,2013-01-25 05:33:00,
2013-01-25 00:38:00,22.1,5.4,30.41,ENE,72,1.0,1.0,48,0.00,,---,0.00,VWS V14.01,2013-01-25 05:38:00,
2013-01-25 00:43:00,22.0,4.4,30.41,SE,126,0.0,1.0,46,0.00,,---,0.00,VWS V14.01,2013-01-25 05:43:00,
2013-01-25 00:48:00,21.8,5.1,30.41,WSW,240,0.0,0.0,48,0.00,,---,0.00,VWS V14.01,2013-01-25 05:48:00,
2013-01-25 00:53:00,21.7,5.9,30.40,NNE,18,1.0,1.0,50,0.00,,---,0.00,VWS V14.01,2013-01-25 05:53:00,
2013-01-25 00:58:00,21.6,6.3,30.41,NNW,339,1.0,1.0,51,0.00,,---,0.00,VWS V14.01,2013-01-25 05:58:00,
2013-01-25 01:03:00,21.5,5.8,30.41,NNW,341,0.0,0.0,50,0.00,,---,0.00,VWS V14.01,2013-01-25 06:03:00,
2013-01-25 01:08:00,21.5,4.9,30.42,NW,321,0.0,1.0,48,0.00,,---,0.00,VWS V14.01,2013-01-25 06:08:00,
2013-01-25 01:13:00,21.5,4.9,30.42,SSW,206,0.0,0.0,48,0.00,,---,0.00,VWS V14.01,2013-01-25 06:13:00,
2013-01-25 01:18:00,21.5,5.8,30.42,SSE,158,0.0,0.0,50,0.00,,---,0.00,VWS V14.01,2013-01-25 06:18:00,
2013-01-25 01:23:00,21.4,5.7,30.42,WNW,295,3.0,3.0,50,0.00,,---,0.00,VWS V14.01,2013-01-25 06:23:00,
2013-01-25 01:28:00,21.3,4.7,30.43,NW,305,0.0,0.0,48,0.00,,---,0.00,VWS V14.01,2013-01-25 06:28:00,
2013-01-25 01:33:00,21.2,4.6,30.43,NNW,328,1.0,1.0,48,0.00,,---,0.00,VWS V14.01,2013-01-25 06:33:00,
2013-01-25 01:38:00,21.1,5.4,30.43,SSW,200,0.0,1.0,50,0.00,,---,0.00,VWS V14.01,2013-01-25 06:38:00,
2013-01-25 01:43:00,20.9,5.2,30.43,West,263,0.0,0.0,50,0.00,,---,0.00,VWS V14.01,2013-01-25 06:43:00,
2013-01-25 01:48:00,20.8,5.5,30.43,NW,314,0.0,0.0,51,0.00,,---,0.00,VWS V14.01,2013-01-25 06:48:00,
2013-01-25 01:53:00,20.8,7.2,30.43,NW,314,0.0,0.0,55,0.00,,---,0.00,VWS V14.01,2013-01-25 06:53:00,
2013-01-25 01:58:00,20.6,5.3,30.43,ESE,103,0.0,0.0,51,0.00,,---,0.00,VWS V14.01,2013-01-25 06:58:00,
2013-01-25 02:03:00,20.5,5.3,30.42,NW,314,0.0,0.0,51,0.00,,---,0.00,VWS V14.01,2013-01-25 07:03:00,
2013-01-25 02:08:00,20.4,5.6,30.42,NW,322,0.0,0.0,52,0.00,,---,0.00,VWS V14.01,2013-01-25 07:08:00,
2013-01-25 02:13:00,20.4,6.0,30.42,WNW,295,0.0,1.0,53,0.00,,---,0.00,VWS V14.01,2013-01-25 07:13:00,
2013-01-25 02:18:00,20.4,6.4,30.42,East,94,0.0,1.0,54,0.00,,---,0.00,VWS V14.01,2013-01-25 07:18:00,
2013-01-25 02:23:00,20.5,6.1,30.41,NE,38,0.0,0.0,53,0.00,,---,0.00,VWS V14.01,2013-01-25 07:23:00,
2013-01-25 02:28:00,20.6,6.2,30.41,NE,34,2.0,2.0,53,0.00,,---,0.00,VWS V14.01,2013-01-25 07:28:00,
2013-01-25 02:33:00,20.6,5.3,30.42,West,271,0.0,1.0,51,0.00,,---,0.00,VWS V14.01,2013-01-25 07:33:00,
2013-01-25 02:38:00,20.8,5.1,30.42,WNW,293,2.0,2.0,50,0.00,,---,0.00,VWS V14.01,2013-01-25 07:38:00,
2013-01-25 02:43:00,21.0,4.4,30.41,East,84,0.0,0.0,48,0.00,,---,0.00,VWS V14.01,2013-01-25 07:43:00,
2013-01-25 02:48:00,20.9,6.5,30.40,East,83,0.0,1.0,53,0.00,,---,0.00,VWS V14.01,2013-01-25 07:48:00,
2013-01-25 02:53:00,20.9,5.6,30.40,NNW,338,0.0,0.0,51,0.00,,---,0.00,VWS V14.01,2013-01-25 07:53:00,
2013-01-25 02:58:00,21.0,4.4,30.40,WNW,290,0.0,2.0,48,0.00,,---,0.00,VWS V14.01,2013-01-25 07:58:00,
2013-01-25 03:03:00,21.2,5.0,30.41,ENE,73,1.0,1.0,49,0.00,,---,0.00,VWS V14.01,2013-01-25 08:03:00,
2013-01-25 03:08:00,21.4,5.2,30.41,SE,144,2.0,2.0,49,0.00,,---,0.00,VWS V14.01,2013-01-25 08:08:00,
2013-01-25 03:13:00,21.5,4.9,30.40,NW,307,0.0,0.0,48,0.00,,---,0.00,VWS V14.01,2013-01-25 08:13:00,
2013-01-25 03:18:00,21.5,4.9,30.41,WNW,291,0.0,1.0,48,0.00,,---,0.00,VWS V14.01,2013-01-25 08:18:00,
2013-01-25 03:23:00,21.4,4.3,30.41,WNW,297,0.0,4.0,47,0.00,,---,0.00,VWS V14.01,2013-01-25 08:23:00,
2013-01-25 03:28:00,21.3,4.2,30.41,West,281,1.0,2.0,47,0.00,,---,0.00,VWS V14.01,2013-01-25 08:28:00,
2013-01-25 03:33:00,21.3,3.8,30.41,WNW,288,0.0,0.0,46,0.00,,---,0.00,VWS V14.01,2013-01-25 08:33:00,
2013-01-25 03:38:00,21.2,4.1,30.41,SSE,156,1.0,1.0,47,0.00,,---,0.00,VWS V14.01,2013-01-25 08:38:00,
2013-01-25 03:43:00,21.2,4.1,30.41,SSE,163,0.0,0.0,47,0.00,,---,0.00,VWS V14.01,2013-01-25 08:43:00,
2013-01-25 03:48:00,21.2,4.6,30.42,NW,319,1.0,2.0,48,0.00,,---,0.00,VWS V14.01,2013-01-25 08:48:00,
2013-01-25 03:53:00,21.2,3.7,30.42,SSW,198,2.0,2.0,46,0.00,,---,0.00,VWS V14.01,2013-01-25 08:53:00,
2013-01-25 03:58:00,21.3,4.7,30.41,SSE,150,0.0,0.0,48,0.00,,---,0.00,VWS V14.01,2013-01-25 08:58:00,
2013-01-25 04:03:00,21.3,3.8,30.41,NE,37,0.0,0.0,46,0.00,,---,0.00,VWS V14.01,2013-01-25 09:03:00,
2013-01-25 04:08:00,21.3,4.7,30.40,SSE,156,1.0,2.0,48,0.00,,---,0.00,VWS V14.01,2013-01-25 09:08:00,
2013-01-25 04:13:00,21.3,3.8,30.40,NW,321,0.0,1.0,46,0.00,,---,0.00,VWS V14.01,2013-01-25 09:13:00,
2013-01-25 04:18:00,21.4,3.8,30.40,NNW,330,0.0,0.0,46,0.00,,---,0.00,VWS V14.01,2013-01-25 09:18:00,
2013-01-25 04:23:00,21.6,5.0,30.39,West,279,1.0,3.0,48,0.00,,---,0.00,VWS V14.01,2013-01-25 09:23:00,
2013-01-25 04:28:00,21.7,4.1,30.38,WSW,240,3.0,3.0,46,0.00,,---,0.00,VWS V14.01,2013-01-25 09:28:00,
2013-01-25 04:33:00,21.6,3.5,30.38,WNW,301,2.0,2.0,45,0.00,,---,0.00,VWS V14.01,2013-01-25 09:33:00,
2013-01-25 04:38:00,21.8,4.2,30.38,WSW,242,2.0,2.0,46,0.00,,---,0.00,VWS V14.01,2013-01-25 09:38:00,
2013-01-25 04:43:00,21.8,3.7,30.38,East,84,0.0,2.0,45,0.00,,---,0.00,VWS V14.01,2013-01-25 09:43:00,
2013-01-25 04:48:00,21.9,4.3,30.38,WNW,290,0.0,0.0,46,0.00,,---,0.00,VWS V14.01,2013-01-25 09:48:00,
2013-01-25 04:53:00,22.0,4.4,30.39,SW,222,0.0,0.0,46,0.00,,---,0.00,VWS V14.01,2013-01-25 09:53:00,
2013-01-25 04:58:00,22.1,4.0,30.38,South,184,2.0,2.0,45,0.00,,---,0.00,VWS V14.01,2013-01-25 09:58:00,
2013-01-25 05:03:00,22.1,3.5,30.38,WNW,283,1.0,3.0,44,0.00,,---,0.00,VWS V14.01,2013-01-25 10:03:00,
2013-01-25 05:08:00,22.1,4.0,30.37,SE,139,0.0,0.0,45,0.00,,---,0.00,VWS V14.01,2013-01-25 10:08:00,
2013-01-25 05:13:00,22.2,4.1,30.39,NW,308,1.0,3.0,45,0.00,,---,0.00,VWS V14.01,2013-01-25 10:13:00,
2013-01-25 05:18:00,22.4,4.3,30.36,West,271,1.0,2.0,45,0.00,,---,0.00,VWS V14.01,2013-01-25 10:18:00,
2013-01-25 05:23:00,22.3,4.2,30.37,SW,232,0.0,0.0,45,0.00,,---,0.00,VWS V14.01,2013-01-25 10:23:00,
2013-01-25 05:28:00,22.4,4.3,30.37,NNE,16,0.0,1.0,45,0.00,,---,0.00,VWS V14.01,2013-01-25 10:28:00,
2013-01-25 05:33:00,22.4,3.8,30.36,WNW,291,3.0,3.0,44,0.00,,---,0.00,VWS V14.01,2013-01-25 10:33:00,
2013-01-25 05:38:00,22.5,4.4,30.35,NW,313,4.0,5.0,45,0.00,,---,0.00,VWS V14.01,2013-01-25 10:38:00,
2013-01-25 05:43:00,22.6,4.5,30.36,NNE,29,1.0,1.0,45,0.00,,---,0.00,VWS V14.01,2013-01-25 10:43:00,
2013-01-25 05:48:00,22.6,4.5,30.36,East,101,1.0,1.0,45,0.00,,---,0.00,VWS V14.01,2013-01-25 10:48:00,
2013-01-25 05:53:00,22.6,4.5,30.36,West,280,0.0,5.0,45,0.00,,---,0.00,VWS V14.01,2013-01-25 10:53:00,
2013-01-25 05:58:00,22.6,4.9,30.35,WSW,249,3.0,3.0,46,0.00,,---,0.00,VWS V14.01,2013-01-25 10:58:00,
2013-01-25 06:03:00,22.5,5.3,30.35,East,94,1.0,3.0,47,0.00,,---,0.00,VWS V14.01,2013-01-25 11:03:00,
2013-01-25 06:08:00,22.4,4.8,30.35,South,169,1.0,3.0,46,0.00,,---,0.00,VWS V14.01,2013-01-25 11:08:00,
2013-01-25 06:13:00,22.5,4.4,30.36,SE,146,0.0,2.0,45,0.00,,---,0.00,VWS V14.01,2013-01-25 11:13:00,
2013-01-25 06:18:00,22.6,5.4,30.36,East,89,1.0,2.0,47,0.00,,---,0.00,VWS V14.01,2013-01-25 11:18:00,
2013-01-25 06:23:00,22.6,4.9,30.36,ENE,72,1.0,3.0,46,0.00,,---,0.00,VWS V14.01,2013-01-25 11:23:00,
2013-01-25 06:28:00,22.6,5.9,30.36,WNW,300,4.0,6.0,48,0.00,,---,0.00,VWS V14.01,2013-01-25 11:28:00,
2013-01-25 06:33:00,22.4,8.3,30.37,WNW,290,1.0,2.0,54,0.00,,---,0.00,VWS V14.01,2013-01-25 11:33:00,
2013-01-25 06:38:00,22.2,8.5,30.36,WNW,298,3.0,6.0,55,0.00,,---,0.00,VWS V14.01,2013-01-25 11:38:00,
2013-01-25 06:43:00,22.0,7.9,30.37,SSE,162,0.0,0.0,54,0.00,,---,0.00,VWS V14.01,2013-01-25 11:43:00,
2013-01-25 06:48:00,21.8,8.9,30.36,SSW,212,0.0,4.0,57,0.00,,---,0.00,VWS V14.01,2013-01-25 11:48:00,
2013-01-25 06:53:00,21.7,10.3,30.36,WSW,249,1.0,1.0,61,0.00,,---,0.00,VWS V14.01,2013-01-25 11:53:00,
2013-01-25 06:58:00,21.5,9.8,30.36,SE,127,0.0,0.0,60,0.00,,---,0.00,VWS V14.01,2013-01-25 11:58:00,
2013-01-25 07:03:00,21.3,9.2,30.35,SW,231,0.0,1.0,59,0.00,,---,0.00,VWS V14.01,2013-01-25 12:03:00,
2013-01-25 07:08:00,21.3,9.2,30.36,West,259,3.0,4.0,59,0.00,,---,0.00,VWS V14.01,2013-01-25 12:08:00,
2013-01-25 07:13:00,21.3,10.0,30.36,NW,307,2.0,2.0,61,0.00,,---,0.00,VWS V14.01,2013-01-25 12:13:00,
2013-01-25 07:18:00,21.4,10.1,30.36,NNW,346,2.0,6.0,61,0.00,,---,0.00,VWS V14.01,2013-01-25 12:18:00,
2013-01-25 07:23:00,21.3,10.3,30.36,SSE,167,0.0,0.0,62,0.00,,---,0.00,VWS V14.01,2013-01-25 12:23:00,
2013-01-25 07:28:00,21.3,11.0,30.35,SW,217,1.0,1.0,64,0.00,,---,0.00,VWS V14.01,2013-01-25 12:28:00,
2013-01-25 07:33:00,21.2,10.9,30.35,SW,218,1.0,5.0,64,0.00,,---,0.00,VWS V14.01,2013-01-25 12:33:00,
2013-01-25 07:38:00,21.2,11.3,30.35,SSW,204,0.0,0.0,65,0.00,,---,0.00,VWS V14.01,2013-01-25 12:38:00,
2013-01-25 07:43:00,21.3,11.7,30.35,SW,228,2.0,2.0,66,0.00,,---,0.00,VWS V14.01,2013-01-25 12:43:00,
2013-01-25 07:48:00,21.5,11.6,30.35,WNW,297,2.0,3.0,65,0.00,,---,0.00,VWS V14.01,2013-01-25 12:48:00,
2013-01-25 07:53:00,21.6,11.3,30.35,WNW,295,1.0,6.0,64,0.00,,---,0.00,VWS V14.01,2013-01-25 12:53:00,
2013-01-25 07:58:00,21.8,11.2,30.35,SW,215,0.0,4.0,63,0.00,,---,0.00,VWS V14.01,2013-01-25 12:58:00,
2013-01-25 08:03:00,22.0,11.4,30.35,SSW,207,0.0,2.0,63,0.00,,---,0.00,VWS V14.01,2013-01-25 13:03:00,
2013-01-25 08:08:00,22.1,11.1,30.35,NW,308,0.0,1.0,62,0.00,,---,0.00,VWS V14.01,2013-01-25 13:08:00,
2013-01-25 08:13:00,22.1,10.4,30.34,SSE,161,1.0,2.0,60,0.00,,---,0.00,VWS V14.01,2013-01-25 13:13:00,
2013-01-25 08:18:00,22.2,11.2,30.34,NW,316,2.0,2.0,62,0.00,,---,0.00,VWS V14.01,2013-01-25 13:18:00,
2013-01-25 08:23:00,22.3,11.3,30.34,WSW,249,2.0,5.0,62,0.00,,---,0.00,VWS V14.01,2013-01-25 13:23:00,
2013-01-25 08:28:00,22.3,10.9,30.34,WNW,290,2.0,3.0,61,0.00,,---,0.00,VWS V14.01,2013-01-25 13:28:00,
2013-01-25 08:33:00,22.5,10.7,30.34,South,170,1.0,2.0,60,0.00,,---,0.00,VWS V14.01,2013-01-25 13:33:00,
2013-01-25 08:38:00,22.6,11.2,30.34,WNW,290,5.0,8.0,61,0.00,,---,0.00,VWS V14.01,2013-01-25 13:38:00,
2013-01-25 08:43:00,22.8,11.0,30.34,SW,228,0.0,1.0,60,0.00,,---,0.00,VWS V14.01,2013-01-25 13:43:00,
2013-01-25 08:48:00,22.9,11.1,30.35,SSW,208,1.0,2.0,60,0.00,,---,0.00,VWS V14.01,2013-01-25 13:48:00,
2013-01-25 08:53:00,23.1,12.0,30.35,WNW,290,0.0,3.0,62,0.00,,---,0.00,VWS V14.01,2013-01-25 13:53:00,
2013-01-25 08:58:00,23.3,11.5,30.35,NW,304,2.0,2.0,60,0.00,,---,0.00,VWS V14.01,2013-01-25 13:58:00,
2013-01-25 09:03:00,23.4,13.7,30.35,WNW,294,0.0,2.0,66,0.00,,---,0.00,VWS V14.01,2013-01-25 14:03:00,
2013-01-25 09:08:00,23.5,15.8,30.33,SE,146,0.0,1.0,72,0.00,,---,0.00,VWS V14.01,2013-01-25 14:08:00,
2013-01-25 09:13:00,23.3,14.6,30.34,SE,135,3.0,3.0,69,0.00,,---,0.00,VWS V14.01,2013-01-25 14:13:00,
2013-01-25 09:18:00,23.0,14.7,30.34,NW,307,0.0,3.0,70,0.00,,---,0.00,VWS V14.01,2013-01-25 14:18:00,
2013-01-25 09:23:00,22.9,14.3,30.34,NW,321,1.0,5.0,69,0.00,,---,0.00,VWS V14.01,2013-01-25 14:23:00,
2013-01-25 09:28:00,22.8,13.8,30.33,West,264,3.0,9.0,68,0.00,,---,0.00,VWS V14.01,2013-01-25 14:28:00,
2013-01-25 09:33:00,22.8,13.8,30.33,WSW,240,2.0,12.0,68,0.00,,---,0.00,VWS V14.01,2013-01-25 14:33:00,
2013-01-25 09:38:00,22.9,14.6,30.35,WSW,242,2.0,5.0,70,0.00,,---,0.00,VWS V14.01,2013-01-25 14:38:00,
2013-01-25 09:43:00,23.0,14.7,30.34,SW,219,3.0,7.0,70,0.00,,---,0.00,VWS V14.01,2013-01-25 14:43:00,
2013-01-25 09:48:00,23.1,15.1,30.34,ESE,117,1.0,4.0,71,0.00,,---,0.00,VWS V14.01,2013-01-25 14:48:00,
2013-01-25 09:53:00,23.2,15.8,30.33,NW,311,5.0,5.0,73,0.00,,---,0.00,VWS V14.01,2013-01-25 14:53:00,
2013-01-25 09:58:00,23.3,15.9,30.33,WSW,257,4.0,4.0,73,0.00,,---,0.00,VWS V14.01,2013-01-25 14:58:00,
2013-01-25 10:03:00,23.4,15.7,30.33,WNW,290,1.0,5.0,72,0.00,,---,0.00,VWS V14.01,2013-01-25 15:03:00,
2013-01-25 10:08:00,23.8,16.4,30.32,WNW,292,6.0,6.0,73,0.00,,---,0.00,VWS V14.01,2013-01-25 15:08:00,
2013-01-25 10:13:00,23.9,16.2,30.33,SW,232,4.0,8.0,72,0.00,,---,0.00,VWS V14.01,2013-01-25 15:13:00,
2013-01-25 10:18:00,24.0,16.6,30.33,NW,305,0.0,2.0,73,0.00,,---,0.00,VWS V14.01,2013-01-25 15:18:00,
2013-01-25 10:23:00,24.2,16.5,30.33,NW,308,0.0,2.0,72,0.00,,---,0.00,VWS V14.01,2013-01-25 15:23:00,
2013-01-25 10:28:00,24.3,16.9,30.33,SE,136,4.0,6.0,73,0.00,,---,0.00,VWS V14.01,2013-01-25 15:28:00,
2013-01-25 10:33:00,24.4,16.7,30.33,SW,214,0.0,0.0,72,0.00,,---,0.00,VWS V14.01,2013-01-25 15:33:00,
2013-01-25 10:38:00,24.6,17.5,30.32,WNW,287,1.0,1.0,74,0.00,,---,0.00,VWS V14.01,2013-01-25 15:38:00,
2013-01-25 10:43:00,24.8,17.7,30.32,South,181,2.0,3.0,74,0.00,,---,0.00,VWS V14.01,2013-01-25 15:43:00,
2013-01-25 10:48:00,24.8,18.0,30.32,SSE,147,1.0,4.0,75,0.00,,---,0.00,VWS V14.01,2013-01-25 15:48:00,
2013-01-25 10:53:00,25.0,18.2,30.31,NW,314,2.0,2.0,75,0.00,,---,0.00,VWS V14.01,2013-01-25 15:53:00,
2013-01-25 10:58:00,25.0,18.2,30.31,WNW,294,5.0,6.0,75,0.00,,---,0.00,VWS V14.01,2013-01-25 15:58:00,
2013-01-25 11:03:00,25.0,18.8,30.31,WNW,300,0.0,1.0,77,0.00,,---,0.00,VWS V14.01,2013-01-25 16:03:00,
2013-01-25 11:08:00,25.1,18.9,30.31,WSW,250,2.0,4.0,77,0.00,,---,0.00,VWS V14.01,2013-01-25 16:08:00,
2013-01-25 11:13:00,25.2,19.0,30.31,WNW,290,7.0,7.0,77,0.00,,---,0.00,VWS V14.01,2013-01-25 16:13:00,
2013-01-25 11:18:00,25.2,19.3,30.30,WSW,240,0.0,1.0,78,0.00,,---,0.00,VWS V14.01,2013-01-25 16:18:00,
2013-01-25 11:23:00,25.2,19.3,30.29,WSW,254,2.0,2.0,78,0.00,,---,0.00,VWS V14.01,2013-01-25 16:23:00,
2013-01-25 11:28:00,25.3,19.7,30.28,WNW,290,1.0,2.0,79,0.00,,---,0.00,VWS V14.01,2013-01-25 16:28:00,
2013-01-25 11:33:00,25.4,20.1,30.29,West,281,5.0,8.0,80,0.00,,---,0.00,VWS V14.01,2013-01-25 16:33:00,
2013-01-25 11:38:00,25.5,20.2,30.27,NW,304,0.0,0.0,80,0.00,,---,0.00,VWS V14.01,2013-01-25 16:38:00,
2013-01-25 11:43:00,25.5,20.2,30.27,NW,319,1.0,4.0,80,0.00,,---,0.00,VWS V14.01,2013-01-25 16:43:00,
2013-01-25 11:48:00,25.6,20.3,30.26,West,271,2.0,3.0,80,0.00,,---,0.00,VWS V14.01,2013-01-25 16:48:00,
2013-01-25 11:53:00,25.8,20.8,30.26,NW,311,1.0,3.0,81,0.00,,---,0.00,VWS V14.01,2013-01-25 16:53:00,
2013-01-25 11:58:00,25.9,21.2,30.26,West,262,5.0,6.0,82,0.00,,---,0.00,VWS V14.01,2013-01-25 16:58:00,
2013-01-25 12:03:00,26.1,21.4,30.26,West,263,0.0,3.0,82,0.00,,---,0.00,VWS V14.01,2013-01-25 17:03:00,
2013-01-25 12:08:00,26.1,21.4,30.25,WSW,254,4.0,5.0,82,0.00,,---,0.00,VWS V14.01,2013-01-25 17:08:00,
2013-01-25 12:13:00,26.2,21.8,30.25,NW,315,1.0,4.0,83,0.00,,---,0.00,VWS V14.01,2013-01-25 17:13:00,
2013-01-25 12:18:00,26.3,22.1,30.26,WNW,288,0.0,2.0,84,0.00,,---,0.00,VWS V14.01,2013-01-25 17:18:00,
2013-01-25 12:24:00,26.3,22.1,30.25,South,190,0.0,0.0,84,0.00,,---,0.00,VWS V14.01,2013-01-25 17:24:00,
2013-01-25 12:29:00,26.3,22.1,30.25,WNW,300,4.0,5.0,84,0.00,,---,0.00,VWS V14.01,2013-01-25 17:29:00,
2013-01-25 12:33:00,26.4,22.5,30.25,SW,233,1.0,2.0,85,0.00,,---,0.00,VWS V14.01,2013-01-25 17:33:00,
2013-01-25 12:38:00,26.5,22.9,30.24,WNW,300,1.0,1.0,86,0.00,,---,0.00,VWS V14.01,2013-01-25 17:38:00,
2013-01-25 12:43:00,26.7,23.4,30.25,NW,305,2.0,2.0,87,0.00,,---,0.00,VWS V14.01,2013-01-25 17:43:00,
2013-01-25 12:48:00,26.9,24.1,30.25,SW,235,1.0,6.0,89,0.00,,---,0.00,VWS V14.01,2013-01-25 17:48:00,
2013-01-25 12:53:00,27.0,23.9,30.24,WNW,287,6.0,7.0,88,0.00,,---,0.00,VWS V14.01,2013-01-25 17:53:00,
2013-01-25 12:58:00,27.1,24.0,30.24,WNW,287,0.0,0.0,88,0.00,,---,0.00,VWS V14.01,2013-01-25 17:58:00,
2013-01-25 13:03:00,27.3,24.5,30.22,WNW,294,0.0,0.0,89,0.00,,---,0.00,VWS V14.01,2013-01-25 18:03:00,
2013-01-25 13:08:00,27.5,25.0,30.21,WNW,285,2.0,2.0,90,0.00,,---,0.00,VWS V14.01,2013-01-25 18:08:00,
2013-01-25 13:13:00,27.7,25.2,30.20,NW,304,1.0,2.0,90,0.00,,---,0.00,VWS V14.01,2013-01-25 18:13:00,
2013-01-25 13:18:00,27.9,25.9,30.20,WNW,288,0.0,0.0,92,0.00,,---,0.00,VWS V14.01,2013-01-25 18:18:00,
2013-01-25 13:23:00,28.1,25.5,30.20,NW,322,1.0,1.0,90,0.00,,---,0.00,VWS V14.01,2013-01-25 18:23:00,
2013-01-25 13:28:00,28.4,26.1,30.20,NNW,328,0.0,0.0,91,0.00,,---,0.00,VWS V14.01,2013-01-25 18:28:00,
2013-01-25 13:33:00,28.7,26.4,30.19,NNW,328,0.0,0.0,91,0.00,,---,0.00,VWS V14.01,2013-01-25 18:33:00,
2013-01-25 13:38:00,29.0,27.0,30.19,NW,315,0.0,1.0,92,0.00,,---,0.00,VWS V14.01,2013-01-25 18:38:00,
2013-01-25 13:43:00,29.1,27.1,30.19,WNW,295,0.0,1.0,92,0.00,,---,0.00,VWS V14.01,2013-01-25 18:43:00,
2013-01-25 13:48:00,29.4,27.4,30.19,NW,311,0.0,1.0,92,0.00,,---,0.00,VWS V14.01,2013-01-25 18:48:00,
2013-01-25 13:53:00,29.7,27.7,30.19,NNE,26,1.0,2.0,92,0.00,,---,0.00,VWS V14.01,2013-01-25 18:53:00,
2013-01-25 13:58:00,30.0,28.0,30.18,NNE,23,1.0,2.0,92,0.00,,---,0.00,VWS V14.01,2013-01-25 18:58:00,
2013-01-25 14:03:00,30.4,28.1,30.18,North,358,0.0,0.0,91,0.00,,---,0.00,VWS V14.01,2013-01-25 19:03:00,
2013-01-25 14:08:00,30.6,28.3,30.18,NNE,19,0.0,1.0,91,0.00,,---,0.00,VWS V14.01,2013-01-25 19:08:00,
2013-01-25 14:13:00,30.7,28.4,30.17,NW,323,0.0,0.0,91,0.00,,---,0.00,VWS V14.01,2013-01-25 19:13:00,
2013-01-25 14:18:00,30.9,28.6,30.17,North,351,0.0,1.0,91,0.00,,---,0.00,VWS V14.01,2013-01-25 19:18:00,
2013-01-25 14:23:00,31.2,29.1,30.16,North,354,0.0,0.0,92,0.00,,---,0.00,VWS V14.01,2013-01-25 19:23:00,
2013-01-25 14:28:00,31.4,29.4,30.16,North,354,0.0,0.0,92,0.00,,---,0.00,VWS V14.01,2013-01-25 19:28:00,
2013-01-25 14:33:00,31.6,29.5,30.15,North,356,0.0,0.0,92,0.00,,---,0.00,VWS V14.01,2013-01-25 19:33:00,
2013-01-25 14:38:00,31.7,29.9,30.15,North,356,0.0,0.0,93,0.00,,---,0.00,VWS V14.01,2013-01-25 19:38:00,
2013-01-25 14:43:00,31.9,30.1,30.15,North,355,0.0,0.0,93,0.00,,---,0.00,VWS V14.01,2013-01-25 19:43:00,
2013-01-25 14:48:00,32.1,30.6,30.15,North,356,0.0,0.0,94,0.00,,---,0.00,VWS V14.01,2013-01-25 19:48:00,
2013-01-25 14:53:00,32.3,30.8,30.15,North,355,0.0,0.0,94,0.00,,---,0.00,VWS V14.01,2013-01-25 19:53:00,
2013-01-25 14:58:00,32.4,30.9,30.15,North,355,0.0,1.0,94,0.00,,---,0.00,VWS V14.01,2013-01-25 19:58:00,
2013-01-25 15:03:00,32.6,31.1,30.15,North,356,0.0,0.0,94,0.00,,---,0.00,VWS V14.01,2013-01-25 20:03:00,
2013-01-25 15:08:00,32.8,31.5,30.14,North,356,0.0,0.0,95,0.00,,---,0.00,VWS V14.01,2013-01-25 20:08:00,
2013-01-25 15:13:00,32.9,31.6,30.14,North,354,0.0,0.0,95,0.01,,---,0.01,VWS V14.01,2013-01-25 20:13:00,
2013-01-25 15:18:00,32.8,31.3,30.14,SW,221,0.0,1.0,94,0.01,,---,0.01,VWS V14.01,2013-01-25 20:18:00,
2013-01-25 15:23:00,32.7,31.4,30.13,SW,222,0.0,0.0,95,0.01,,---,0.01,VWS V14.01,2013-01-25 20:23:00,
2013-01-25 15:28:00,32.8,31.5,30.13,SW,222,0.0,0.0,95,0.01,,---,0.01,VWS V14.01,2013-01-25 20:28:00,
2013-01-25 15:33:00,32.9,31.6,30.13,SW,222,0.0,0.0,95,0.01,,---,0.01,VWS V14.01,2013-01-25 20:33:00,
2013-01-25 15:38:00,33.1,31.8,30.13,SW,222,0.0,0.0,95,0.01,,---,0.01,VWS V14.01,2013-01-25 20:38:00,
2013-01-25 15:43:00,33.2,31.9,30.12,SW,222,0.0,0.0,95,0.02,,---,0.02,VWS V14.01,2013-01-25 20:43:00,
2013-01-25 15:48:00,33.1,31.8,30.13,SW,222,0.0,0.0,95,0.02,,---,0.02,VWS V14.01,2013-01-25 20:48:00,
2013-01-25 15:53:00,33.1,32.1,30.12,SW,235,0.0,0.0,96,0.02,,---,0.02,VWS V14.01,2013-01-25 20:53:00,
2013-01-25 15:58:00,33.1,32.1,30.12,SW,233,0.0,0.0,96,0.02,,---,0.02,VWS V14.01,2013-01-25 20:58:00,
2013-01-25 16:03:00,33.0,32.0,30.13,SW,235,0.0,0.0,96,0.02,,---,0.02,VWS V14.01,2013-01-25 21:03:00,
2013-01-25 16:08:00,32.9,31.9,30.13,SW,235,0.0,0.0,96,0.02,,---,0.02,VWS V14.01,2013-01-25 21:08:00,
2013-01-25 16:13:00,32.9,31.9,30.13,SW,235,0.0,0.0,96,0.01,,---,0.02,VWS V14.01,2013-01-25 21:13:00,
2013-01-25 16:18:00,32.8,31.8,30.13,SW,235,0.0,0.0,96,0.01,,---,0.02,VWS V14.01,2013-01-25 21:18:00,
2013-01-25 16:23:00,32.7,31.7,30.13,SW,235,0.0,0.0,96,0.01,,---,0.02,VWS V14.01,2013-01-25 21:23:00,
2013-01-25 16:28:00,32.6,31.6,30.13,SW,235,0.0,1.0,96,0.01,,---,0.02,VWS V14.01,2013-01-25 21:28:00,
2013-01-25 16:33:00,32.6,31.6,30.12,West,266,1.0,1.0,96,0.02,,---,0.03,VWS V14.01,2013-01-25 21:33:00,
2013-01-25 16:38:00,32.7,31.7,30.12,West,262,1.0,1.0,96,0.02,,---,0.03,VWS V14.01,2013-01-25 21:38:00,
2013-01-25 16:43:00,32.7,31.9,30.12,NE,49,0.0,0.0,97,0.01,,---,0.03,VWS V14.01,2013-01-25 21:43:00,
2013-01-25 16:48:00,32.6,31.6,30.12,NE,49,0.0,0.0,96,0.01,,---,0.03,VWS V14.01,2013-01-25 21:48:00,
2013-01-25 16:53:00,32.5,31.5,30.12,NE,49,0.0,0.0,96,0.01,,---,0.03,VWS V14.01,2013-01-25 21:53:00,
2013-01-25 16:58:00,32.4,31.4,30.12,NE,48,0.0,0.0,96,0.01,,---,0.03,VWS V14.01,2013-01-25 21:58:00,
2013-01-25 17:03:00,32.4,31.6,30.12,WSW,240,0.0,0.0,97,0.01,,---,0.03,VWS V14.01,2013-01-25 22:03:00,
2013-01-25 17:08:00,32.0,31.0,30.12,West,273,1.0,1.0,96,0.01,,---,0.03,VWS V14.01,2013-01-25 22:08:00,
2013-01-25 17:13:00,31.5,30.5,30.12,West,278,0.0,1.0,96,0.01,,---,0.03,VWS V14.01,2013-01-25 22:13:00,
2013-01-25 17:18:00,31.3,30.3,30.13,West,276,0.0,0.0,96,0.01,,---,0.03,VWS V14.01,2013-01-25 22:18:00,
2013-01-25 17:23:00,31.2,30.2,30.13,West,276,0.0,0.0,96,0.01,,---,0.03,VWS V14.01,2013-01-25 22:23:00,
2013-01-25 17:28:00,31.2,30.5,30.14,West,276,0.0,0.0,97,0.01,,---,0.03,VWS V14.01,2013-01-25 22:28:00,
2013-01-25 17:33:00,31.1,30.1,30.14,West,274,0.0,0.0,96,0.00,,---,0.03,VWS V14.01,2013-01-25 22:33:00,
2013-01-25 17:38:00,31.0,30.0,30.15,West,274,1.0,1.0,96,0.00,,---,0.03,VWS V14.01,2013-01-25 22:38:00,
2013-01-25 17:43:00,30.9,30.1,30.15,West,266,0.0,1.0,97,0.00,,---,0.03,VWS V14.01,2013-01-25 22:43:00,
2013-01-25 17:48:00,30.9,30.1,30.15,West,281,1.0,1.0,97,0.00,,---,0.03,VWS V14.01,2013-01-25 22:48:00,
2013-01-25 17:53:00,30.8,30.0,30.15,West,270,0.0,1.0,97,0.00,,---,0.03,VWS V14.01,2013-01-25 22:53:00,
2013-01-25 17:58:00,30.7,30.0,30.14,West,277,0.0,0.0,97,0.00,,---,0.03,VWS V14.01,2013-01-25 22:58:00,
2013-01-25 18:03:00,30.5,29.8,30.14,WNW,301,0.0,1.0,97,0.00,,---,0.03,VWS V14.01,2013-01-25 23:03:00,
2013-01-25 18:08:00,30.3,29.5,30.14,WNW,288,0.0,0.0,97,0.00,,---,0.03,VWS V14.01,2013-01-25 23:08:00,
2013-01-25 18:13:00,30.2,29.5,30.15,WNW,283,1.0,1.0,97,0.00,,---,0.03,VWS V14.01,2013-01-25 23:13:00,
2013-01-25 18:18:00,30.2,29.5,30.14,WNW,291,0.0,0.0,97,0.00,,---,0.03,VWS V14.01,2013-01-25 23:18:00,
2013-01-25 18:23:00,30.2,29.5,30.15,WNW,290,1.0,2.0,97,0.00,,---,0.03,VWS V14.01,2013-01-25 23:23:00,
2013-01-25 18:28:00,30.1,29.4,30.15,WNW,294,0.0,2.0,97,0.00,,---,0.03,VWS V14.01,2013-01-25 23:28:00,
2013-01-25 18:33:00,32.1,31.6,30.15,NNE,30,1.0,1.0,98,0.00,,---,0.03,VWS V14.01,2013-01-25 23:33:00,
2013-01-25 18:38:00,31.8,31.3,30.15,NW,323,1.0,2.0,98,0.00,,---,0.03,VWS V14.01,2013-01-25 23:38:00,
2013-01-25 18:43:00,31.7,31.2,30.15,SE,126,0.0,1.0,98,0.00,,---,0.03,VWS V14.01,2013-01-25 23:43:00,
2013-01-25 18:48:00,32.6,32.1,30.15,WNW,295,1.0,3.0,98,0.00,,---,0.03,VWS V14.01,2013-01-25 23:48:00,
2013-01-25 18:53:00,34.5,34.0,30.15,NNW,338,1.0,1.0,98,0.01,,---,0.04,VWS V14.01,2013-01-25 23:53:00,
2013-01-25 18:58:00,35.3,34.8,30.16,SSW,211,3.0,3.0,98,0.01,,---,0.04,VWS V14.01,2013-01-25 23:58:00,
2013-01-25 19:03:00,35.8,35.3,30.16,WSW,250,0.0,1.0,98,0.01,,---,0.04,VWS V14.01,2013-01-26 00:03:00,
2013-01-25 19:08:00,35.9,35.4,30.16,NE,51,1.0,2.0,98,0.01,,---,0.04,VWS V14.01,2013-01-26 00:08:00,
2013-01-25 19:13:00,36.3,35.8,30.16,SSE,165,2.0,2.0,98,0.02,,---,0.05,VWS V14.01,2013-01-26 00:13:00,
2013-01-25 19:18:00,36.9,36.4,30.16,NNE,32,4.0,5.0,98,0.02,,---,0.05,VWS V14.01,2013-01-26 00:18:00,
2013-01-25 19:23:00,37.2,36.4,30.16,SE,142,3.0,3.0,97,0.02,,---,0.05,VWS V14.01,2013-01-26 00:23:00,
2013-01-25 19:28:00,37.2,36.2,30.16,SW,221,1.0,4.0,96,0.02,,---,0.05,VWS V14.01,2013-01-26 00:28:00,
2013-01-25 19:33:00,37.3,36.3,30.16,NNE,13,1.0,2.0,96,0.02,,---,0.05,VWS V14.01,2013-01-26 00:33:00,
2013-01-25 19:38:00,37.4,36.1,30.16,NE,51,4.0,5.0,95,0.02,,---,0.05,VWS V14.01,2013-01-26 00:38:00,
2013-01-25 19:43:00,37.5,36.2,30.16,NNE,32,2.0,4.0,95,0.02,,---,0.05,VWS V14.01,2013-01-26 00:43:00,
2013-01-25 19:48:00,37.6,36.0,30.16,WNW,295,3.0,3.0,94,0.03,,---,0.06,VWS V14.01,2013-01-26 00:48:00,
2013-01-25 19:53:00,37.7,36.1,30.16,SE,140,2.0,9.0,94,0.02,,---,0.06,VWS V14.01,2013-01-26 00:53:00,
2013-01-25 19:58:00,37.8,36.2,30.16,West,281,0.0,4.0,94,0.02,,---,0.06,VWS V14.01,2013-01-26 00:58:00,
2013-01-25 20:03:00,37.9,36.3,30.16,NE,51,1.0,5.0,94,0.02,,---,0.06,VWS V14.01,2013-01-26 01:03:00,
2013-01-25 20:08:00,37.9,36.3,30.17,NE,47,2.0,3.0,94,0.02,,---,0.06,VWS V14.01,2013-01-26 01:08:00,
2013-01-25 20:13:00,37.7,36.1,30.17,ESE,110,1.0,2.0,94,0.01,,---,0.06,VWS V14.01,2013-01-26 01:13:00,
2013-01-25 20:18:00,37.7,36.4,30.17,SSE,153,5.0,7.0,95,0.01,,---,0.06,VWS V14.01,2013-01-26 01:18:00,
2013-01-25 20:23:00,37.7,36.4,30.18,ESE,113,2.0,2.0,95,0.01,,---,0.06,VWS V14.01,2013-01-26 01:23:00,
2013-01-25 20:28:00,37.9,36.6,30.17,ESE,112,2.0,5.0,95,0.01,,---,0.06,VWS V14.01,2013-01-26 01:28:00,
2013-01-25 20:33:00,37.9,36.6,30.17,NE,56,1.0,2.0,95,0.01,,---,0.06,VWS V14.01,2013-01-26 01:33:00,
2013-01-25 20:38:00,37.8,36.5,30.17,ESE,108,3.0,3.0,95,0.01,,---,0.06,VWS V14.01,2013-01-26 01:38:00,
2013-01-25 20:43:00,37.9,36.3,30.18,ENE,72,2.0,6.0,94,0.01,,---,0.06,VWS V14.01,2013-01-26 01:43:00,
2013-01-25 20:48:00,37.9,36.6,30.17,NE,49,2.0,7.0,95,0.00,,---,0.06,VWS V14.01,2013-01-26 01:48:00,
2013-01-25 20:53:00,37.8,36.5,30.17,SE,136,2.0,4.0,95,0.00,,---,0.06,VWS V14.01,2013-01-26 01:53:00,
2013-01-25 20:58:00,37.8,36.2,30.18,WNW,288,0.0,2.0,94,0.00,,---,0.06,VWS V14.01,2013-01-26 01:58:00,
2013-01-25 21:03:00,37.8,36.5,30.17,NE,41,1.0,3.0,95,0.00,,---,0.06,VWS V14.01,2013-01-26 02:03:00,
2013-01-25 21:08:00,37.7,36.4,30.17,SE,131,1.0,3.0,95,0.00,,---,0.06,VWS V14.01,2013-01-26 02:08:00,
2013-01-25 21:13:00,37.5,36.2,30.17,ESE,114,2.0,4.0,95,0.00,,---,0.06,VWS V14.01,2013-01-26 02:13:00,
2013-01-25 21:18:00,37.5,36.2,30.17,SE,143,1.0,3.0,95,0.00,,---,0.06,VWS V14.01,2013-01-26 02:18:00,
2013-01-25 21:23:00,37.6,36.3,30.18,ESE,120,3.0,4.0,95,0.00,,---,0.06,VWS V14.01,2013-01-26 02:23:00,
2013-01-25 21:28:00,37.6,36.3,30.18,NE,54,3.0,7.0,95,0.00,,---,0.06,VWS V14.01,2013-01-26 02:28:00,
2013-01-25 21:33:00,37.5,36.2,30.18,WSW,256,1.0,2.0,95,0.00,,---,0.06,VWS V14.01,2013-01-26 02:33:00,
2013-01-25 21:38:00,37.6,36.3,30.17,East,80,3.0,4.0,95,0.00,,---,0.06,VWS V14.01,2013-01-26 02:38:00,
2013-01-25 21:43:00,37.6,36.3,30.17,East,98,2.0,2.0,95,0.00,,---,0.06,VWS V14.01,2013-01-26 02:43:00,
2013-01-25 21:48:00,37.6,36.3,30.18,ENE,71,3.0,4.0,95,0.00,,---,0.06,VWS V14.01,2013-01-26 02:48:00,
2013-01-25 21:53:00,37.6,36.3,30.18,ENE,71,2.0,4.0,95,0.00,,---,0.06,VWS V14.01,2013-01-26 02:53:00,
2013-01-25 21:58:00,37.6,36.3,30.18,ENE,69,2.0,5.0,95,0.00,,---,0.06,VWS V14.01,2013-01-26 02:58:00,
2013-01-25 22:03:00,37.5,36.2,30.18,ENE,78,2.0,4.0,95,0.00,,---,0.06,VWS V14.01,2013-01-26 03:03:00,
2013-01-25 22:08:00,37.5,36.2,30.17,NE,56,0.0,3.0,95,0.00,,---,0.06,VWS V14.01,2013-01-26 03:08:00,
2013-01-25 22:13:00,37.4,36.1,30.18,SSE,157,3.0,5.0,95,0.00,,---,0.06,VWS V14.01,2013-01-26 03:13:00,
2013-01-25 22:18:00,37.4,36.1,30.18,North,9,1.0,5.0,95,0.00,,---,0.06,VWS V14.01,2013-01-26 03:18:00,
2013-01-25 22:23:00,37.3,36.0,30.18,East,101,3.0,4.0,95,0.00,,---,0.06,VWS V14.01,2013-01-26 03:23:00,
2013-01-25 22:28:00,37.3,36.0,30.18,WNW,284,1.0,5.0,95,0.00,,---,0.06,VWS V14.01,2013-01-26 03:28:00,
2013-01-25 22:33:00,37.2,35.9,30.18,ESE,105,3.0,3.0,95,0.00,,---,0.06,VWS V14.01,2013-01-26 03:33:00,
2013-01-25 22:38:00,37.1,35.8,30.18,ESE,113,1.0,2.0,95,0.00,,---,0.06,VWS V14.01,2013-01-26 03:38:00,
2013-01-25 22:43:00,37.0,36.0,30.18,SSE,152,1.0,7.0,96,0.00,,---,0.06,VWS V14.01,2013-01-26 03:43:00,
2013-01-25 22:48:00,36.9,35.9,30.17,SE,135,1.0,1.0,96,0.00,,---,0.06,VWS V14.01,2013-01-26 03:48:00,
2013-01-25 22:53:00,36.8,35.8,30.17,SSE,153,3.0,3.0,96,0.00,,---,0.06,VWS V14.01,2013-01-26 03:53:00,
2013-01-25 22:58:00,36.8,35.8,30.17,NNE,22,0.0,2.0,96,0.00,,---,0.06,VWS V14.01,2013-01-26 03:58:00,
2013-01-25 23:03:00,36.7,35.7,30.17,NNE,27,1.0,5.0,96,0.00,,---,0.06,VWS V14.01,2013-01-26 04:03:00,
2013-01-25 23:08:00,36.6,35.6,30.17,SE,146,1.0,3.0,96,0.00,,---,0.06,VWS V14.01,2013-01-26 04:08:00,
2013-01-25 23:13:00,36.6,35.6,30.17,SW,226,0.0,2.0,96,0.00,,---,0.06,VWS V14.01,2013-01-26 04:13:00,
2013-01-25 23:18:00,36.6,35.6,30.17,SSW,197,1.0,2.0,96,0.00,,---,0.06,VWS V14.01,2013-01-26 04:18:00,
2013-01-25 23:23:00,36.5,35.5,30.17,West,273,1.0,1.0,96,0.00,,---,0.06,VWS V14.01,2013-01-26 04:23:00,
2013-01-25 23:28:00,36.5,35.5,30.18,ENE,61,0.0,2.0,96,0.00,,---,0.06,VWS V14.01,2013-01-26 04:28:00,
2013-01-25 23:33:00,36.4,35.4,30.17,SE,136,3.0,3.0,96,0.00,,---,0.06,VWS V14.01,2013-01-26 04:33:00,
2013-01-25 23:38:00,36.5,35.5,30.18,West,267,1.0,1.0,96,0.00,,---,0.06,VWS V14.01,2013-01-26 04:38:00,
2013-01-25 23:43:00,36.4,35.4,30.17,ESE,120,2.0,2.0,96,0.00,,---,0.06,VWS V14.01,2013-01-26 04:43:00,
2013-01-25 23:48:00,36.3,35.3,30.18,SSW,204,0.0,1.0,96,0.00,,---,0.06,VWS V14.01,2013-01-26 04:48:00,
2013-01-25 23:53:00,36.2,35.2,30.18,SSE,153,3.0,3.0,96,0.00,,---,0.06,VWS V14.01,2013-01-26 04:53:00,
2013-01-25 23:58:00,36.1,35.1,30.18,South,187,0.0,0.0,96,0.00,,---,0.06,VWS V14.01,2013-01-26 04:58:00,